Location: Caltech
(34.1382°N, 118.1253°W)
Time: 02:35:51
(UTC-07:00)

TMSAT-1 - Visible Passes

Search period start: 17 April 2014 00:00
Search period end: 27 April 2014 00:00
Orbit: 808 x 814 km, 98.4° (Epoch: 16 April)

Date Brightness Start Highest point End Pass type
(mag) Time Alt. Az. Time Alt. Az. Time Alt. Az.
17 Apr 11.7 02:49:23 10° ENE 02:50:47 11° E 02:51:46 11° ESE visible
17 Apr 9.0 04:25:51 10° N 04:31:08 71° WNW 04:32:56 41° SW visible
18 Apr 9.3 04:02:33 10° NNE 04:07:50 69° ESE 04:09:26 44° SSE visible
18 Apr 11.0 05:44:49 10° NW 05:47:06 13° WNW 05:49:24 10° W visible
19 Apr 10.2 03:39:30 10° NNE 03:44:27 40° E 03:45:55 33° SE visible
19 Apr 10.4 05:20:08 10° NNW 05:24:04 22° WNW 05:27:06 14° WSW visible
20 Apr 10.9 03:16:50 10° NE 03:21:00 23° E 03:22:25 21° ESE visible
20 Apr 9.8 04:56:10 10° N 05:00:56 36° WNW 05:03:35 22° WSW visible
21 Apr 11.6 02:54:59 10° ENE 02:57:29 13° E 02:58:54 12° ESE visible
21 Apr 9.1 04:32:32 10° N 04:37:44 60° WNW 04:40:04 32° SW visible
22 Apr 9.1 04:09:08 10° NNE 04:14:27 81° ESE 04:16:33 38° S visible
23 Apr 9.9 03:46:00 10° NNE 03:51:06 47° E 03:53:02 33° SSE visible
23 Apr 10.6 05:27:03 10° NNW 05:30:37 19° WNW 05:34:11 10° WSW visible
24 Apr 10.8 03:23:12 10° NE 03:27:41 27° E 03:29:31 22° SE visible
24 Apr 10.0 05:02:56 10° N 05:07:31 31° WNW 05:10:42 17° WSW visible
25 Apr 11.4 03:01:00 10° NE 03:04:11 16° E 03:06:00 14° ESE visible
25 Apr 9.3 04:39:13 10° N 04:44:20 51° WNW 04:47:10 25° SW visible
26 Apr 9.0 04:15:45 10° NNE 04:21:04 87° WNW 04:23:39 32° SSW visible
